Flag for USA

Past Weather in Lawrenceville, Georgia, USA — Yesterday and Last 2 Weeks

Now
64 °F

Passing clouds.


Feels Like: 64 °F
Forecast: 78 / 64 °F
Wind: 3 mph from Northeast

Location: Gwinnett County-Briscoe Field Airport
Current Time: Oct 23, 2020 at 7:29:11 am
Latest Report: Oct 23, 2020 at 6:56 am
Visibility: 10 mi
Pressure30.17 "Hg
Humidity: 100%
Dew Point: 64 °F
Location of LawrencevilleLocation

Past Weather in Lawrenceville — Graph

°F

Lawrenceville Temperature Yesterday

Maximum temperature yesterday: 81 °F (at 3:56 pm)
Minimum temperature yesterday: 62 °F (at 1:56 am)
Average temperature yesterday: 70 °F

High & Low Weather Summary for the Past Weeks

 TemperatureHumidityPressure
High84 °F (Oct 8, 2:56 pm)100% (Oct 8, 6:56 am)30.39 "Hg (Oct 8, 6:56 am)
Low41 °F (Oct 17, 6:56 am)41% (Oct 8, 1:56 pm)29.79 "Hg (Oct 11, 3:21 pm)
Average66 °F86%30.08 "Hg
* Reported Oct 8 5:56 am — Oct 23 5:56 am, Lawrenceville. Weather by CustomWeather, © 2020

Note: Actual official high and low records may vary slightly from our data, if they occured in-between our weather recording intervals... More about our weather records

Lawrenceville Weather History for the Previous 24 Hours

Scroll right to see more
 ConditionsComfort  
Time TempWeatherWind HumidityBarometerVisibility
5:56 am
Fri, Oct 23
64 °FOvercast.No wind100%30.16 "Hg10 mi
4:56 am64 °FPassing clouds.3 mph100%30.15 "Hg10 mi
3:56 am64 °FOvercast.No wind100%30.15 "Hg10 mi
2:56 am64 °FClear.3 mph100%30.16 "Hg10 mi
1:56 am64 °FClear.3 mph100%30.16 "Hg10 mi
12:56 am66 °FClear.3 mph93%30.17 "Hg10 mi
11:56 pm
Thu, Oct 22
67 °FClear.3 mph93%30.17 "Hg10 mi
10:56 pm68 °FPassing clouds.3 mph90%30.17 "Hg10 mi
9:56 pm68 °FClear.3 mph90%30.18 "Hg8 mi
8:56 pm69 °FClear.3 mph87%30.17 "Hg9 mi
7:56 pm70 °FClear.3 mph84%30.17 "Hg10 mi
6:56 pm73 °FClear.5 mph76%30.15 "Hg7 mi
5:56 pm78 °FScattered clouds.7 mph62%30.16 "Hg10 mi
4:56 pm80 °FPassing clouds.8 mph58%30.15 "Hg10 mi
3:56 pm81 °FSunny.10 mph56%30.16 "Hg10 mi
2:56 pm80 °FPartly sunny.13 mph60%30.17 "Hg10 mi
2:03 pm79 °FPartly sunny.8 mph65%30.19 "Hg10 mi
1:56 pm79 °FPartly sunny.10 mph67%30.20 "Hg10 mi
12:56 pm76 °FPartly sunny.9 mph72%30.23 "Hg10 mi
11:56 am76 °FPartly sunny.12 mph74%30.25 "Hg10 mi
10:56 am73 °FPartly sunny.10 mph81%30.25 "Hg10 mi
9:56 am69 °FScattered clouds.8 mph93%30.25 "Hg9 mi
8:56 am66 °FLow clouds.5 mph96%30.24 "Hg9 mi
7:56 am64 °FFog.5 mph100%30.23 "Hg6 mi
Weather by CustomWeather, © 2020

See weather overview